Regional Weather Roundup
Issued by NWS

Home | Current Version | Previous Version | Graphics & Text | Print | Product List | Glossary On
Versions: 1 2 3 4 5 6 7 8 9 10 11 12 13 14 15 16 17 18 19 20 21 22 23 24 25 26 27 28 29 30 31 32 33 34 35 36 37 38 39 40 41 42 43 44 45 46 47 48 49 50
623
ASUS45 KSLC 092010
RWRUT

UTAH REGIONAL WEATHER ROUNDUP
NATIONAL WEATHER SERVICE SALT LAKE CITY UT
100 PM MST FRI DEC 09 2016

UTZ001>011-023>025-092100-

NORTHERN UTAH

CITY           SKY/WX    TMP DP  RH WIND       PRES   REMARKS
BRIGHAM CITY     N/A     35  28  75 N8        30.22R WCI  28
HILL AFB       CLOUDY    37  32  79 S8        30.17F WCI  31
LOGAN          MIX PCPN  35  31  85 NW9       30.19S WCI  28
OGDEN          CLOUDY    38  32  79 W6        30.18F WCI  33
SALT LAKE CITY CLOUDY    40  31  70 NW3       30.18F
WENDOVER       PTSUNNY   30  19  64 CALM      30.20F
HEBER CITY     CLOUDY    37  32  81 CALM      30.18F

$$

UTZ011>015-024>027-092100-

CENTRAL/NORTHEAST UTAH

CITY           SKY/WX    TMP DP  RH WIND       PRES   REMARKS
PROVO AIRPORT  CLOUDY    43  32  65 S3        30.21F
MOAB/CANYONLAN PTSUNNY   38   9  30 CALM      30.30F
DELTA          CLOUDY    45  23  42 SW10      30.22S
PRICE          MOSUNNY   36   8  31 E8        30.26F WCI  30
RICHFIELD      MOSUNNY   46  27  46 E2        30.23F
ROOSEVELT      CLOUDY    28  18  64 CALM      30.29F
VERNAL         CLOUDY    29  15  56 E3        30.26F

$$

UTZ013>016-019>022-027-092100-

SOUTHERN UTAH

CITY           SKY/WX    TMP DP  RH WIND       PRES   REMARKS
BRYCE CANYON   SUNNY     39  22  50 SE13      30.26F WCI  31
CEDAR CITY     MOSUNNY   49  27  42 SW16      30.23F
MILFORD        CLOUDY    48  24  39 SW18      30.22F
ST GEORGE      CLOUDY    45  21  39 CALM      30.32F
HANKSVILLE     MOSUNNY   36   9  32 CALM      30.35F
KANAB          SUNNY     48  32  53 S7        30.32F
BLANDING       PTSUNNY   39  20  46 CALM      30.37F

$$

REGIONAL REPORTS     COLORADO/ARIZONA

CITY           SKY/WX    TMP DP  RH WIND       PRES   REMARKS
CRAIG, CO      CLOUDY    36  24  62 CALM      30.22F
GRAND JUNCTION CLOUDY    35  15  44 CALM      30.31F
RIFLE, CO      CLOUDY    32  18  56 CALM      30.31F
MONTROSE, CO   CLOUDY    38  19  46 CALM      30.30F
CORTEZ, CO     CLOUDY    44  22  41 VRB3      30.29F
COLORADO CITY    N/A     50  34  53 E5        30.31F
PAGE, AZ       MOSUNNY   44  11  26 NW6       30.29F
GRAND CANYON   MOSUNNY   45  36  70 SW8       30.30F
KINGMAN, AZ    MOSUNNY   60  37  42 W9        30.25F
FLAGSTAFF, AZ  SUNNY     48  34  58 S8        30.29F

$$

REGIONAL REPORTS    NEVADA/IDAHO/WYOMING

CITY           SKY/WX    TMP DP  RH WIND       PRES   REMARKS
LAS VEGAS, NV  CLOUDY    53  10  18 NE3       30.27F
ELY, NY        CLOUDY    38  17  42 VRB3      30.24F
ELKO, NV       PTSUNNY   42  31  64 VRB3      30.16F
POCATELLO, ID  LGT SNOW  25  23  92 E3        30.13F VSB 1
FORT BRIDGER,    N/A     41  32  70 W22G32    30.15F
EVANSTON, WY   CLOUDY    37  30  75 SW16      30.14F WCI  28
ROCK SPRINGS,  CLOUDY    36  29  75 W31G38    30.09F WCI  23
KEMMERER, WY     N/A     36  30  80 SW18G24   30.10F WCI  25

$$




USA.gov is the U.S. government's official web portal to all federal, state and local government web resources and services.